Regional Weather Roundup
Issued by NWS Northern Indiana

Home | Current Version | Previous Version | Graphics & Text | Print | Product List | Glossary On
Versions: 1 2 3 4 5 6 7 8 9 10 11 12 13 14 15 16 17 18 19 20 21 22 23 24 25 26 27 28 29 30 31 32 33 34 35 36 37 38 39 40 41 42 43 44 45 46 47 48 49 50
390
ASUS43 KIWX 200810
RWRIWX

KIWX WEATHER ROUNDUP
NATIONAL WEATHER SERVICE NORTHERN INDIANA
400 AM EDT SUN MAY 20 2018

NOTE: "FAIR" INDICATES FEW OR NO CLOUDS BELOW 12,000 FEET WITH NO
SIGNIFICANT WEATHER AND/OR OBSTRUCTIONS TO VISIBILITY.

* THESE STATIONS ARE NOT UNDER NWS QUALITY CONTROL. THEY ALSO MAY NOT
  REPORT WEATHER SUCH AS PRECIPITATION OR FOG.

INZ001>027-200900-
NORTHERN INDIANA

CITY           SKY/WX    TMP DP  RH WIND       PRES   REMARKS
GARY*          CLOUDY    50  50 100 NE12      30.07R FOG
VALPARAISO     CLOUDY    55  53  93 N7        30.04S FOG
LAPORTE*       CLOUDY    53  52  97 N9        30.04F FOG
KNOX*          FAIR      54  54 100 NE6       30.02F
SOUTH BEND     CLOUDY    52  51  97 N9        30.04S
GOSHEN         CLOUDY    57  55  93 N7        30.03R FOG
ROCHESTER*     FAIR      57  55  94 CALM      30.04R FOG
WARSAW*        FAIR      54  54 100 NW3       30.04R
AUBURN*        CLOUDY    57  55  94 N7        30.03R
FORT WAYNE     FAIR      58  56  93 W3        30.02S
PERU/GRISSOM   FAIR      57  57 100 S3        30.02R FOG
MARION*        FAIR      59  57  96 CALM      30.03S FOG

$$
INZ028>050-200900-
CENTRAL INDIANA

CITY           SKY/WX    TMP DP  RH WIND       PRES   REMARKS
LAFAYETTE      FAIR      62  61  96 NE6       30.00F FOG
KOKOMO*        FAIR      57  57 100 NE5       30.03S FOG
MUNCIE*        FAIR      63  60  90 CALM      30.02S FOG
INDIANAPOLIS   FAIR      67  64  90 NE8       29.99F

$$
MIZ043>046-050>051-056>058-064>065-071>073-077>080-200900-
SOUTHWEST LOWER MICHIGAN

CITY           SKY/WX    TMP DP  RH WIND       PRES   REMARKS
BATTLE CREEK   CLOUDY    57  54  89 NW5       30.05S
BENTON HARBOR  CLOUDY    48  47  96 CALM      30.05R FOG
COLDWATER*     CLOUDY    57  55  93 N6        30.02F
HILLSDALE*     CLOUDY    55  54  94 NW10      30.02R
HOLLAND        CLOUDY    51  48  89 NW6       30.06S
GRAND RAPIDS   CLOUDY    57  53  86 N7        30.04R
KALAMAZOO      CLOUDY    56  53  90 N6        30.04S
STURGIS*       CLOUDY    56  55  95 N6        30.03R
THREE RIVERS*  CLOUDY    55  54  94 N6        30.04R

$$
OHZ001>008-015>018-024>025-200900-
NORTHWEST OHIO

CITY           SKY/WX    TMP DP  RH WIND       PRES   REMARKS
DEFIANCE       CLOUDY    59  55  87 W3        30.02R
FINDLAY        FAIR      61  58  90 W8        30.00R
TOLEDO EXPRESS CLOUDY    60  58  92 W6        29.99R
TOLEDO METCALF CLOUDY    62  58  86 W7        30.00R
LIMA           FAIR      59  58  96 W6        30.01R

$$
AND FOR LAKE MICHIGAN COASTAL AND OPEN LAKE BUOY OBSERVATIONS

STATION/POSITION TEMP    WIND        PRES    VSBY  WAVE
                 AIR SEA DIR/SP/G                  HT/PER
                 (F)     (DEG/KT/KT) (MB)    (MI)  (FT/S)
CALUMET HARBOR    47     360/ 10/ 13 1017.6R
MICHIGAN CITY     49      10/ 14/ 15   N/A
BURNS HARBOR      50      40/ 11/ 15 1017.9F
SAINT JOSEPH      48      40/  5/ 10 1018.3
4 MI NW BRIDGMAN  49 54   20/ 12/ 14 1018.1          2/ 3
MICHIGAN CITY     47 52   50/ 12/ 16   N/A           2/ 3

$$
&&




USA.gov is the U.S. government's official web portal to all federal, state and local government web resources and services.